Location: Santa Barbara
(34.4500°N, 119.7700°W)
Time: 06:33:28
(UTC-07:00)

Tiangong 2 - Visible Passes

Search period start: 21 March 2019 00:00
Search period end: 31 March 2019 00:00
Orbit: 379 x 390 km, 42.8° (Epoch: 21 March)

Date Brightness Start Highest point End Pass type
(mag) Time Alt. Az. Time Alt. Az. Time Alt. Az.
21 Mar 4.1 04:48:23 16° NE 04:48:23 16° NE 04:49:29 10° ENE visible
21 Mar 1.2 06:20:50 10° WNW 06:24:01 77° NNE 06:27:11 10° ESE visible
22 Mar 2.0 05:24:08 40° N 05:24:29 42° NNE 05:27:32 10° E visible
23 Mar 1.3 06:00:01 23° W 06:01:44 52° SSW 06:04:50 10° SE visible
24 Mar 3.0 05:03:49 27° ESE 05:03:49 27° ESE 05:05:26 10° ESE visible
25 Mar 2.6 05:40:04 23° SSW 05:40:04 23° SSW 05:42:02 10° SSE visible
27 Mar 3.5 20:11:46 10° SSE 20:12:01 11° SSE 20:12:01 11° SSE visible
28 Mar 2.3 20:46:40 10° SW 20:48:34 30° SSW 20:48:34 30° SSW visible
29 Mar 2.5 19:47:43 10° SSW 19:50:14 22° SE 19:52:39 11° E visible
29 Mar 3.7 21:23:47 10° W 21:24:55 19° W 21:24:55 19° W visible
30 Mar 1.0 20:24:05 10° WSW 20:27:13 87° NW 20:28:48 27° ENE visible
